FW7404 Weather Reports


Display with metric or nautical units.
time (UTC)temp
F
wind
direction
speed
MPH
gust
MPH
rain 1hr
in
rain 24hr
in
rain mn
in
humidity
%
barometer
mb
20260502163901 44 322 3.0 7.0 0.00 0.00 0.00 45 1017.9
20260502163358 45 290 5.0 7.0 0.00 0.00 0.00 45 1017.7
20260502162856 44 329 5.0 7.0 0.00 0.00 0.00 44 1017.8
20260502162352 46 307 8.0 9.0 0.00 0.00 0.00 42 1017.8
20260502161849 44 306 1.0 5.0 0.00 0.00 0.00 44 1017.7
20260502161345 44 332 6.0 8.0 0.00 0.00 0.00 45 1017.8
20260502160843 44 291 3.0 7.0 0.00 0.00 0.00 43 1017.9
20260502160341 44 349 2.0 5.0 0.00 0.00 0.00 46 1018.0
20260502152316 43 274 3.0 5.0 0.00 0.00 0.00 47 1017.6
20260502151814 43 335 4.0 5.0 0.00 0.00 0.00 47 1017.8
20260502151310 44 12 5.0 10.0 0.00 0.00 0.00 48 1017.9
20260502150808 43 0 5.0 9.0 0.00 0.00 0.00 47 1017.6
20260502150304 42 330 6.0 10.0 0.00 0.00 0.00 45 1017.6
20260502130653 41 54 2.0 5.0 0.00 0.00 0.00 67 1017.7
20260502130151 40 293 2.0 7.0 0.00 0.00 0.00 67 1018.0
20260502123636 40 351 3.0 5.0 0.00 0.00 0.00 69 1017.9
20260502123133 40 339 4.0 7.0 0.00 0.00 0.00 70 1018.0
20260502122629 39 30 2.0 5.0 0.00 0.00 0.00 70 1017.9
20260502122126 39 301 3.0 5.0 0.00 0.00 0.00 71 1018.0
20260502121624 38 31 2.0 5.0 0.00 0.00 0.00 71 1018.1
20260502121121 38 334 3.0 7.0 0.00 0.00 0.00 71 1018.1
20260502120618 38 27 2.0 5.0 0.00 0.00 0.00 72 1017.8
20260502120115 38 330 1.0 2.0 0.00 0.00 0.00 73 1018.1
20260502115613 37 0 4.0 7.0 0.00 0.00 0.00 73 1017.8
20260502115108 37 315 2.0 5.0 0.00 0.00 0.00 75 1017.8
20260502114604 37 313 2.0 6.0 0.00 0.00 0.00 76 1017.6
20260502114102 36 326 2.0 2.0 0.00 0.00 0.00 80 1017.6
20260502113559 35 345 1.0 3.0 0.00 0.00 0.00 84 1017.7
20260502113058 35 322 1.0 2.0 0.00 0.00 0.00 87 1017.6
20260502112555 34 324 2.0 3.0 0.00 0.00 0.00 89 1017.5
20260502112052 34 326 0.0 1.0 0.00 0.00 0.00 90 1017.5
20260502111550 33 334 1.0 3.0 0.00 0.00 0.00 91 1017.7
20260502111047 33 304 1.0 1.0 0.00 0.00 0.00 91 1017.4
20260502110544 32 265 0.0 1.0 0.00 0.00 0.00 91 1017.2
20260502110042 32 225 0.0 1.0 0.00 0.00 0.00 91 1017.5
20260502105539 32 224 0.0 0.0 0.00 0.00 0.00 90 1017.5
20260502105037 32 224 0.0 1.0 0.00 0.00 0.00 90 1017.6
20260502104533 32 70 0.0 0.0 0.00 0.00 0.00 90 1017.7
20260502104031 32 98 0.0 0.0 0.00 0.00 0.00 90 1017.6
20260502103529 32 98 1.0 1.0 0.00 0.00 0.00 90 1017.4
20260502103026 33 99 0.0 0.0 0.00 0.00 0.00 89 1017.6
20260502102522 33 99 0.0 0.0 0.00 0.00 0.00 89 1017.5
20260502102020 33 99 0.0 0.0 0.00 0.00 0.00 89 1017.4
20260502101517 34 99 0.0 0.0 0.00 0.00 0.00 89 1017.0
20260502101016 34 99 0.0 0.0 0.00 0.00 0.00 89 1017.3
20260502100514 34 99 0.0 0.0 0.00 0.00 0.00 89 1017.4
20260502091448 35 99 0.0 0.0 0.00 0.00 0.00 86 1017.1
20260502090946 36 99 0.0 0.0 0.00 0.00 0.00 86 1017.0
20260502090442 36 99 0.0 0.0 0.00 0.00 0.00 86 1017.0
20260502071337 38 89 1.0 1.0 0.00 0.00 0.00 83 1016.7
20260502070835 38 92 1.0 2.0 0.00 0.00 0.00 83 1016.7
20260502070332 38 83 1.0 2.0 0.00 0.00 0.00 83 1016.8
20260502065831 38 101 0.0 1.0 0.00 0.00 0.00 83 1016.5
20260502065329 38 103 0.0 0.0 0.00 0.00 0.00 82 1016.8
20260502064827 38 119 0.0 0.0 0.00 0.00 0.00 82 1016.6
20260502064325 38 120 0.0 0.0 0.00 0.00 0.00 82 1017.0
20260502063822 38 121 0.0 0.0 0.00 0.00 0.00 82 1016.9
20260502063319 38 120 0.0 0.0 0.00 0.00 0.00 81 1017.0
20260502062816 38 121 0.0 0.0 0.00 0.00 0.00 81 1017.1
20260502062314 38 121 0.0 0.0 0.00 0.00 0.00 81 1016.9
20260502061813 38 122 0.0 0.0 0.00 0.00 0.00 80 1017.1
20260502061310 38 124 1.0 1.0 0.00 0.00 0.00 79 1017.2
20260502060805 38 142 1.0 1.0 0.00 0.00 0.00 79 1017.0
20260502060301 38 178 1.0 1.0 0.00 0.00 0.00 79 1017.0
20260502055759 38 175 0.0 1.0 0.00 0.00 0.00 79 1017.2
20260502055256 39 85 0.0 0.0 0.00 0.00 0.00 78 1017.3
20260502054755 39 83 0.0 1.0 0.00 0.00 0.00 78 1017.3
20260502054253 39 84 0.0 0.0 0.00 0.00 0.00 78 1017.2
20260502053750 39 85 0.0 0.0 0.00 0.00 0.00 77 1017.2
20260502053247 39 93 0.0 1.0 0.00 0.00 0.00 77 1017.1
20260502052745 39 95 0.0 0.0 0.00 0.00 0.00 77 1017.1
20260502052243 39 94 0.0 1.0 0.00 0.00 0.00 76 1017.2
20260502051740 39 115 1.0 2.0 0.00 0.00 0.00 76 1017.1
20260502051239 39 74 1.0 1.0 0.00 0.00 0.00 76 1017.0
20260502050735 39 67 0.0 1.0 0.00 0.00 0.00 75 1017.3
20260502050231 39 61 0.0 1.0 0.00 0.00 0.00 75 1017.2
20260502045728 39 55 1.0 3.0 0.00 0.00 0.00 74 1017.3
20260502045225 39 54 1.0 2.0 0.00 0.00 0.00 74 1016.9
20260502044722 39 12 1.0 3.0 0.00 0.00 0.00 74 1016.9
20260502044218 39 26 2.0 2.0 0.00 0.00 0.00 74 1017.0
20260502043716 39 94 1.0 2.0 0.00 0.00 0.00 73 1016.9
20260502043213 40 88 2.0 3.0 0.00 0.00 0.00 73 1016.9
20260502042712 40 79 0.0 5.0 0.00 0.00 0.00 72 1016.7
20260502042210 40 52 2.0 3.0 0.00 0.00 0.00 71 1016.7
20260502041708 40 36 1.0 7.0 0.00 0.00 0.00 71 1016.8
20260502041204 40 111 2.0 3.0 0.00 0.00 0.00 71 1016.8
20260502040701 40 101 2.0 5.0 0.00 0.00 0.00 70 1016.6
20260502040158 41 33 4.0 6.0 0.00 0.00 0.00 69 1016.7
20260502035654 41 53 6.0 10.0 0.00 0.00 0.00 68 1016.6
20260502035151 42 43 1.0 3.0 0.00 0.00 0.00 67 1016.4
20260502034649 42 332 3.0 5.0 0.00 0.00 0.00 66 1016.3
20260502034147 42 324 3.0 5.0 0.00 0.00 0.00 65 1016.5
20260502033645 42 354 1.0 2.0 0.00 0.00 0.00 66 1016.4
20260502033142 42 354 1.0 2.0 0.00 0.00 0.00 66 1015.9
20260502032638 42 335 1.0 1.0 0.00 0.00 0.00 65 1016.3
20260502032135 42 343 2.0 5.0 0.00 0.00 0.00 65 1016.3
20260502031633 42 306 1.0 3.0 0.00 0.00 0.00 66 1016.0
20260502031130 42 297 1.0 2.0 0.00 0.00 0.00 66 1016.2
20260502030629 42 303 1.0 1.0 0.00 0.00 0.00 66 1016.0
20260502030127 42 326 1.0 2.0 0.00 0.00 0.00 66 1016.0
20260502025624 42 349 1.0 2.0 0.00 0.00 0.00 66 1016.2
20260502025122 42 1 2.0 3.0 0.00 0.00 0.00 65 1015.9
20260502024619 43 340 1.0 2.0 0.00 0.00 0.00 65 1016.0
20260502024117 43 343 3.0 6.0 0.00 0.00 0.00 65 1016.0
20260502023615 43 347 1.0 3.0 0.00 0.00 0.00 65 1015.9
20260502023112 43 316 1.0 1.0 0.00 0.00 0.00 65 1016.2
20260502022609 43 320 2.0 5.0 0.00 0.00 0.00 65 1016.2
20260502022106 43 287 1.0 5.0 0.00 0.00 0.00 64 1016.0
20260502021603 43 322 3.0 5.0 0.00 0.00 0.00 64 1016.0
20260502021100 43 293 3.0 6.0 0.00 0.00 0.00 63 1016.0
20260502020557 43 321 2.0 3.0 0.00 0.00 0.00 63 1015.9
20260502020054 43 335 3.0 3.0 0.00 0.00 0.00 62 1015.7
20260502015552 43 333 2.0 6.0 0.00 0.00 0.00 62 1015.5
20260502015048 43 241 2.0 6.0 0.00 0.00 0.00 62 1015.9
20260502014545 43 3 1.0 3.0 0.00 0.00 0.00 62 1015.7
20260502014042 43 324 3.0 3.0 0.00 0.00 0.00 63 1015.8
20260502013537 43 321 2.0 2.0 0.00 0.00 0.00 62 1015.6
20260502013034 43 301 1.0 1.0 0.00 0.00 0.00 63 1015.7
20260502012532 43 298 2.0 5.0 0.00 0.00 0.00 62 1015.4
20260502012029 43 305 4.0 6.0 0.00 0.00 0.00 62 1015.4
20260502011526 43 356 1.0 3.0 0.00 0.00 0.00 63 1015.5
20260502011022 43 313 1.0 2.0 0.00 0.00 0.00 64 1015.4
20260502010520 44 324 1.0 1.0 0.00 0.00 0.00 64 1015.3
20260502010016 44 312 1.0 2.0 0.00 0.00 0.00 63 1015.3
20260502005514 44 292 2.0 3.0 0.00 0.00 0.00 62 1015.2
20260502005011 44 305 2.0 2.0 0.00 0.00 0.00 62 1015.3
20260502004507 44 0 1.0 5.0 0.00 0.00 0.00 62 1015.1
20260502004004 44 324 2.0 5.0 0.00 0.00 0.00 63 1015.2
20260502003501 44 299 1.0 3.0 0.00 0.00 0.00 63 1015.2
20260502002957 44 304 4.0 5.0 0.00 0.00 0.00 63 1015.2
20260502002455 44 321 4.0 5.0 0.00 0.00 0.00 62 1015.2
20260502001952 44 304 1.0 3.0 0.00 0.00 0.00 62 1015.1
20260502001449 44 303 2.0 5.0 0.00 0.00 0.00 62 1015.1
20260502000947 44 302 2.0 6.0 0.00 0.00 0.00 63 1015.0
20260502000446 44 317 3.0 5.0 0.00 0.00 0.00 63 1014.9
20260501235941 44 317 2.0 3.0 0.00 0.00 0.00 63 1014.9
20260501235437 44 332 1.0 2.0 0.00 0.00 0.00 64 1014.9
20260501234932 44 342 2.0 3.0 0.00 0.00 0.00 63 1015.0
20260501234429 45 325 2.0 3.0 0.00 0.00 0.00 63 1014.7
20260501233928 44 277 1.0 2.0 0.00 0.00 0.00 62 1014.6
20260501233425 45 335 2.0 2.0 0.00 0.00 0.00 62 1014.6
20260501232920 45 9 3.0 5.0 0.00 0.00 0.00 62 1014.7
20260501232418 45 345 3.0 6.0 0.00 0.00 0.00 62 1014.6
20260501231915 45 4 2.0 6.0 0.00 0.00 0.00 62 1014.6
20260501231414 45 347 5.0 7.0 0.00 0.00 0.00 62 1014.6
20260501230911 45 357 1.0 2.0 0.00 0.00 0.00 62 1014.5
20260501230410 45 5 1.0 5.0 0.00 0.00 0.00 61 1014.6
20260501225907 45 351 7.0 10.0 0.00 0.00 0.00 60 1014.5
20260501225405 45 347 3.0 8.0 0.00 0.00 0.00 60 1014.7
20260501224900 46 333 6.0 8.0 0.00 0.00 0.00 58 1014.6
20260501224358 46 339 6.0 8.0 0.00 0.00 0.00 58 1014.4
20260501223854 46 284 4.0 11.0 0.00 0.00 0.00 58 1014.6
20260501223350 46 0 3.0 11.0 0.00 0.00 0.00 58 1014.6
20260501222846 46 348 5.0 9.0 0.00 0.00 0.00 59 1014.5
20260501222344 46 286 5.0 7.0 0.00 0.00 0.00 57 1014.6
20260501221840 46 345 3.0 3.0 0.00 0.00 0.00 56 1014.4
20260501221337 47 300 2.0 3.0 0.00 0.00 0.00 56 1014.4
20260501220836 47 314 3.0 5.0 0.00 0.00 0.00 55 1014.4
20260501220333 47 305 6.0 8.0 0.00 0.00 0.00 53 1014.2
20260501215829 47 301 4.0 8.0 0.00 0.00 0.00 53 1014.1
20260501215325 47 335 4.0 7.0 0.00 0.00 0.00 52 1014.1
20260501214821 47 295 5.0 7.0 0.00 0.00 0.00 53 1014.0
20260501214316 48 285 3.0 5.0 0.00 0.00 0.00 55 1014.1
20260501213813 48 335 3.0 7.0 0.00 0.00 0.00 54 1014.1
20260501213309 48 311 3.0 8.0 0.00 0.00 0.00 53 1013.9
20260501212805 48 289 3.0 6.0 0.00 0.00 0.00 54 1014.1
20260501212305 48 290 2.0 5.0 0.00 0.00 0.00 53 1014.2
20260501211759 48 308 4.0 7.0 0.00 0.00 0.00 53 1014.1
20260501211256 48 338 5.0 9.0 0.00 0.00 0.00 54 1013.7
20260501210753 48 331 6.0 7.0 0.00 0.00 0.00 54 1013.8
20260501210249 48 315 3.0 5.0 0.00 0.00 0.00 55 1013.8
20260501205746 47 321 2.0 7.0 0.00 0.00 0.00 55 1013.9
20260501205243 48 296 4.0 7.0 0.00 0.00 0.00 53 1013.7
20260501204740 48 322 2.0 6.0 0.00 0.00 0.00 52 1013.6
20260501204237 48 335 5.0 6.0 0.00 0.00 0.00 52 1013.7
20260501203733 48 306 3.0 5.0 0.00 0.00 0.00 52 1013.6
20260501203230 48 287 2.0 6.0 0.00 0.00 0.00 50 1013.7
20260501202727 48 156 1.0 6.0 0.00 0.00 0.00 50 1013.7
20260501202224 49 295 7.0 7.0 0.00 0.00 0.00 49 1013.7
20260501201721 49 22 3.0 7.0 0.00 0.00 0.00 50 1013.7
20260501201218 49 19 4.0 6.0 0.00 0.00 0.00 50 1013.6
20260501200714 48 268 2.0 7.0 0.00 0.00 0.00 51 1013.9
20260501200212 48 327 5.0 6.0 0.00 0.00 0.00 52 1013.8
20260501195709 48 335 4.0 7.0 0.00 0.00 0.00 52 1013.8
20260501195205 48 301 3.0 8.0 0.00 0.00 0.00 51 1013.6
20260501194701 49 46 4.0 6.0 0.00 0.00 0.00 49 1013.5
20260501194156 50 341 4.0 5.0 0.00 0.00 0.00 49 1013.6
20260501193654 49 5 1.0 2.0 0.00 0.00 0.00 47 1013.6
20260501193152 49 343 2.0 6.0 0.00 0.00 0.00 47 1013.4
20260501192649 50 298 2.0 6.0 0.00 0.00 0.00 48 1013.5
20260501192146 50 344 5.0 10.0 0.00 0.00 0.00 47 1013.5
20260501191644 51 287 2.0 6.0 0.00 0.00 0.00 47 1013.3
20260501191141 50 291 1.0 6.0 0.00 0.00 0.00 46 1013.3
20260501190637 49 292 3.0 6.0 0.00 0.00 0.00 48 1013.2
20260501190132 49 8 3.0 6.0 0.00 0.00 0.00 47 1013.5
20260501185628 49 303 2.0 7.0 0.00 0.00 0.00 48 1013.4
20260501185124 49 2 5.0 8.0 0.00 0.00 0.00 48 1013.6
20260501184621 50 342 5.0 9.0 0.00 0.00 0.00 47 1013.4
20260501184115 50 280 3.0 7.0 0.00 0.00 0.00 44 1013.2
20260501183612 50 15 3.0 6.0 0.00 0.00 0.00 46 1013.0
20260501183109 49 315 5.0 6.0 0.00 0.00 0.00 46 1013.2
20260501182605 49 349 4.0 7.0 0.00 0.00 0.00 47 1013.2
20260501182102 49 335 3.0 7.0 0.00 0.00 0.00 48 1013.2
20260501181600 48 271 2.0 5.0 0.00 0.00 0.00 51 1013.1
20260501181056 48 343 4.0 5.0 0.00 0.00 0.00 49 1013.2
20260501180554 49 354 3.0 5.0 0.00 0.00 0.00 46 1013.1
20260501180050 49 0 2.0 3.0 0.00 0.00 0.00 44 1013.2
20260501175547 50 357 4.0 7.0 0.00 0.00 0.00 43 1013.2
20260501175044 50 313 2.0 3.0 0.00 0.00 0.00 51 1013.0
20260501174541 49 354 5.0 8.0 0.00 0.00 0.00 52 1013.0
20260501174039 48 328 3.0 7.0 0.00 0.00 0.00 52 1013.2
20260501173536 48 297 5.0 6.0 0.00 0.00 0.00 52 1013.3
20260501173032 47 306 3.0 6.0 0.00 0.00 0.00 52 1013.2
20260501172528 48 335 4.0 7.0 0.00 0.00 0.00 53 1013.2
20260501172024 48 338 4.0 8.0 0.00 0.00 0.00 53 1013.3
20260501171520 48 12 5.0 8.0 0.00 0.00 0.00 54 1013.2
20260501171017 48 1 5.0 7.0 0.00 0.00 0.00 54 1013.0
20260501170514 48 328 4.0 6.0 0.00 0.00 0.00 54 1013.2
20260501170011 48 350 3.0 6.0 0.00 0.00 0.00 54 1013.3
20260501165509 48 346 4.0 5.0 0.00 0.00 0.00 54 1013.2
20260501165006 48 10 3.0 3.0 0.00 0.00 0.00 58 1013.3